Find Starlink 31816

NORAD ID: 59742 Int'l Des: 2024-090 Owner: SPXS Country: US Constellation: starlink operational
LEOCIRCULAR

Live-Position

3D-Globus wird geladen...

Über Starlink 31816

Beschreibung wird geladen...

Nächste Überflüge

Passes for default location (London). Set your location on the main map for personalized predictions.

Höhenverlauf

Loading altitude history...

Zweizeiliger Elementsatz

1 59742U 24090N 26121.70621594 .00002200 00000-0 89400-4 0 9997
2 59742 43.0005 244.4636 0001071 271.4163 88.6566 15.27591517111525
Epoch: 1. Mai 2026 • Age: 11 hours

Aktueller Status

Höhe 485.6 km
Geschwindigkeit 7.63 km/s
Subsatellitenpunkt 37.40°N, 13.23°E
Startdatum 13. Mai 2024
Alter 1.9 years
Typ internet

Technische Details

Klassifizierung Payload
Masse 730.00 kg
Trockenmasse 700.00 kg
Gesamtmasse 730.00 kg
Länge 0.30 m
Durchmesser 4.10 m
Spannweite 29.00 m
Form Box + pan
Hersteller SPXS
Bus-Typ Starlink V2M
Phasenstatus In Orbit
Besitzer/Staat SPXS/US

Most Searched